Location: Eurasberg
(48.3353°N, 11.0839°E)
Time: 09:26:01
(UTC+00:00)

COSMOS 2406 - Pass Details

Date: 18 January 2026
Orbit: 843 x 861 km, 71.0° (Epoch: 18 February)

Event Time Altitude Azimuth Distance (km) Brightness Sun altitude
Exits shadow 05:57:53 - 325° (NW) 2,802 5.4 -10.1°
Reaches altitude 10° 05:58:43 10° 323° (NW) 2,498 5.2 -10.0°
Maximum altitude 06:04:13 49° 250° (WSW) 1,102 3.5 -9.1°
Drops below altitude 10° 06:09:41 10° 178° (S) 2,489 6.0 -8.3°
Sets 06:12:12 0° 172° (S) 3,423 6.8 -7.9°
